Weather History for Belize, Belize

Change the Weather History Date:

Tuesday, April 1, 2014

  Actual Average Record
Temperature  
Mean Temperature 82 °F -  
Max Temperature 87 °F 87 °F 91 °F (2009)
Min Temperature 76 °F 73 °F 60 °F (2003)
Cooling Degree Days 16    
Growing Degree Days 32 (Base 50)    
Moisture  
Dew Point 74 °F    
Average Humidity 72    
Maximum Humidity 89    
Minimum Humidity 53    
Precipitation  
Precipitation 0.00 in 0.07 in - ()
Sea Level Pressure  
Sea Level Pressure 29.96 in    
Wind  
Wind Speed 6 mph ()    
Max Wind Speed 12 mph    
Max Gust Speed -    
Visibility 8.6 miles    
Events      
Averages and records for this station are not official NWS values.
T = Trace of Precipitation, MM = Missing Value Source: Averaged Metar Reports

Daily Weather History Graph

Daily Weather History Graph

Search for Another Location

Airport:

Trip Planner

Search our weather history database for the weather conditions in past years. The results will help you decide how hot, cold, wet, or windy it might be!

Date:

Astronomy

Apr. 01, 2014 Rise Set
Actual Time 5:47 AM CST 6:06 PM CST
Civil Twilight 5:25 AM CST 6:28 PM CST
Nautical Twilight 5:00 AM CST 6:53 PM CST
Astronomical Twilight 4:35 AM CST 7:19 PM CST
Moon 7:07 AM CST (4/1) 8:07 PM CST (4/1)
Length of Visible Light 13h 02m
Length of Day
12h 18m
Waxing Crescent, 5% of the Moon is Illuminated
Apr 1
Waxing Crescent
Apr 7
First Quarter
Apr 15
Full
Apr 22
Last Quarter
Apr 29
New

Hourly Weather History & Observations

Time (CST) Temp. Heat Index Dew Point Humidity Pressure Visibility Wind Dir Wind Speed Gust Speed Precip Events Conditions
12:00 AM 78 °F - 74 °F 82% 29.99 in 12 mi ESE 3.5 mph - -   Scattered Clouds
3:00 AM 78 °F - 73 °F 82% 29.94 in 12 mi East 5.8 mph - -   Scattered Clouds
5:00 AM 77.0 °F - 73.4 °F 89% 29.93 in 6.2 mi East 3.5 mph - N/A   Partly Cloudy
6:00 AM 77 °F - 73 °F 85% 29.96 in 12 mi East 3.5 mph - -   Scattered Clouds
6:00 AM 77.0 °F - 73.4 °F 89% 29.95 in 6.2 mi East 3.5 mph - N/A   Partly Cloudy
7:00 AM 78.8 °F - 75.2 °F 89% 29.97 in 6.2 mi ESE 4.6 mph - N/A   Scattered Clouds
8:00 AM 82.4 °F 88.2 °F 73.4 °F 74% 30.00 in 6.2 mi ESE 9.2 mph - N/A   Scattered Clouds
9:00 AM 85 °F - 74 °F 63% 30.01 in 12 mi East 9.2 mph - -   Mostly Cloudy
9:00 AM 84.2 °F 90.9 °F 73.4 °F 70% 30.00 in 6.2 mi East 9.2 mph - N/A   Mostly Cloudy
10:00 AM 86.0 °F 93.4 °F 73.4 °F 66% 30.01 in 6.2 mi ESE 9.2 mph - N/A   Mostly Cloudy
11:00 AM 86.0 °F 93.4 °F 73.4 °F 66% 30.00 in 6.2 mi ESE 9.2 mph - N/A   Scattered Clouds
12:00 PM 87 °F - 72 °F 53% 29.99 in 14 mi East 11.5 mph - -   Partly Cloudy
12:00 PM 87.8 °F 93.8 °F 71.6 °F 58% 29.98 in 6.2 mi East 11.5 mph - N/A   Scattered Clouds
1:00 PM 86.0 °F 93.4 °F 73.4 °F 66% 29.95 in 6.2 mi East 11.5 mph - N/A   Scattered Clouds
2:00 PM 86.0 °F 95.1 °F 75.2 °F 70% 29.94 in 6.2 mi East 11.5 mph - N/A   Scattered Clouds
3:00 PM 87 °F - 74 °F 57% 29.94 in 14 mi ENE 11.5 mph - -   Partly Cloudy
3:00 PM 86.0 °F 93.4 °F 73.4 °F 66% 29.93 in 6.2 mi ENE 11.5 mph - N/A   Scattered Clouds
4:00 PM 86.0 °F 95.1 °F 75.2 °F 70% 29.93 in 6.2 mi East 10.4 mph - N/A   Scattered Clouds
5:00 PM 84.2 °F 92.3 °F 75.2 °F 74% 29.93 in 6.2 mi East 8.1 mph - N/A   Scattered Clouds
6:00 PM 82 °F - 74 °F 70% 29.95 in 14 mi East 6.9 mph - -   Partly Cloudy
6:00 PM 82.4 °F 88.2 °F 73.4 °F 74% 29.94 in 6.2 mi East 6.9 mph - N/A   Scattered Clouds
7:00 PM 80.6 °F 85.4 °F 73.4 °F 79% 29.95 in 6.2 mi East 6.9 mph - N/A   Partly Cloudy
9:00 PM 81 °F - 74 °F 74% 29.99 in 14 mi East 9.2 mph - -   Scattered Clouds